Terug naar catalogus

SL-14 DEB

ActiefPO
NORAD 26001·DEBRIS·🇷🇺 Russia

Gelanceerd Sep 28, 1991 vanaf Plesetsk Cosmodrome

Loading…

Volgende Passages (komende 24 uur)

TLE

VersSource: Space-Track

Epoch: Sep 14, 2026, 12:49 UTC

1 26001U 91068L   26257.53421483  .00000066  00000-0  28923-3 0  9994
2 26001  82.2241 299.4704 0087373 245.8196 183.7745 12.68001045245865

Volg SL-14 DEB in realtime met AllMySat

Download on the App Store